Location: Étouvelles
(49.5207°N, 3.5808°E)
Time: 13:12:51
(UTC+00:00)

Daily predictions for brighter satellites

Satellite Brightness Start Highest point End
(mag) Time Altitude Azimuth Time Altitude Azimuth Time Altitude Azimuth
USA 281 3.6 17:07:58 10° NNE 17:14:32 71° WNW 17:21:03 10° SW
Radarsat Rocket 4.2 17:08:43 10° SE 17:14:44 66° ENE 17:21:30 10° NNW
Cosmos 2263 Rocket 2.9 17:11:30 10° NW 17:16:59 59° WSW 17:22:25 10° S
BREEZE-M DEB (TANK) 3.0 17:17:27 10° WSW 17:20:18 50° SSE 17:25:46 10° E
Cosmos 407 Rocket 3.5 17:15:45 10° S 17:20:51 65° ESE 17:25:56 10° NNE
ATLAS CENTAUR R/B 1.9 17:17:21 10° SW 17:22:03 72° NW 17:26:35 10° NE
Cosmos 1544 Rocket 4.3 17:22:12 10° NNW 17:26:28 59° W 17:30:43 10° S
Cosmos 1726 Rocket 4.3 17:25:03 10° N 17:28:51 29° ENE 17:32:38 10° SE
Cosmos 1140 Rocket 3.5 17:24:21 10° SSW 17:29:32 89° ESE 17:34:44 10° NNE
ISS -2.1 17:29:24 10° W 17:32:31 35° SSW 17:35:37 10° SE
Cosmos 1655 Rocket 4.1 17:27:04 10° N 17:33:23 89° W 17:39:36 10° S
DMSP B5D2-2 4.1 17:28:59 10° NNE 17:34:15 64° ESE 17:39:28 10° S
SL-08 ROCKET BODY 4.3 17:32:17 10° N 17:38:09 65° ENE 17:43:56 10° SSE
IKONOS-2 4.5 17:35:03 10° NNE 17:39:20 75° ESE 17:43:34 10° S
Cosmos 1190 Rocket 4.1 17:35:33 10° S 17:40:47 62° ESE 17:46:01 10° NNE
Meteor PRIRODA 4.2 17:37:28 10° S 17:40:57 59° WSW 17:44:29 10° NNW
USA 290 3.5 17:39:18 10° SW 17:42:22 39° WNW 17:45:26 10° N
PSLV R/B 4.4 17:39:58 10° SE 17:43:13 31° ENE 17:46:32 10° N
Cosmos 1633 3.6 17:40:53 10° SE 17:43:27 21° E 17:46:01 10° NE
Cosmos 1461 4.0 17:40:13 10° S 17:43:52 29° ESE 17:47:01 14° ENE
Cosmos 2266 Rocket 4.5 17:38:09 10° NNW 17:44:23 67° W 17:50:29 10° S
Cosmos 1408 2.3 17:41:44 10° S 17:45:08 80° E 17:48:35 10° NNE
Okean O Rocket 2.8 17:41:57 10° ESE 17:45:21 22° ENE 17:48:47 10° N
Cosmos 1844 Rocket 2.7 17:41:59 10° NNW 17:47:32 60° ENE 17:53:02 10° SE
Cosmos 1328 3.8 17:45:24 10° S 17:49:23 88° W 17:53:22 10° N
Lacrosse 5 rocket 1.2 17:49:49 10° NW 17:53:19 50° NNE 17:55:52 17° E
DELTA 2 DEB (DPAF) 4.4 17:49:32 10° N 17:53:56 73° WNW 17:58:18 10° SSW
Meteor 1-11 4.4 17:48:40 10° S 17:54:20 56° E 17:59:59 10° NNE
CZ-4B DEB 4.1 17:49:03 10° SSE 17:54:28 73° ENE 17:59:57 10° NNW
CZ-4B R/B 3.5 17:51:54 10° SE 17:56:57 44° ENE 18:02:06 10° N
SKYMED 2 3.5 17:57:27 10° NNE 18:01:49 78° ESE 18:06:10 10° S
Cosmos 1553 Rocket 4.3 17:56:33 10° SSE 18:02:12 42° E 18:07:57 10° NNE
Cosmos 1844 3.7 17:57:45 10° NNW 18:03:35 69° ENE 18:09:19 10° SE
SKYMED 3 4.5 18:00:40 10° NNE 18:04:46 58° E 18:08:51 10° S
CZ-4 R/B 2.1 18:02:09 10° SE 18:05:50 33° ENE 18:09:29 10° N
Cosmos 468 Rocket 3.9 18:01:10 10° NNW 18:06:22 85° ENE 18:11:31 10° SSE
Cosmos 2058 Rocket 3.5 18:02:17 10° N 18:06:26 40° ENE 18:10:36 10° SE
Cosmos 1892 2.6 18:03:15 10° S 18:06:59 90° E 18:10:46 10° N
Cosmos 2278 4.3 18:03:28 10° SW 18:09:03 58° WNW 18:14:43 10° NNE
CZ-4C R/B 3.1 18:05:30 10° NNE 18:09:22 77° ESE 18:13:01 10° S
Cosmos 2360 Rocket 2.5 18:05:47 10° S 18:11:06 45° ESE 18:15:52 13° NE
Cosmos 2219 Rocket 3.3 18:07:16 10° SSE 18:11:27 22° ESE 18:12:21 21° E
YAOGAN 1 2.5 18:08:21 10° SSE 18:12:35 60° ENE 18:16:52 10° N
RESURS DK-1 2.2 18:12:02 10° NNW 18:16:11 72° ENE 18:20:16 10° SE
Cosmos 1825 2.0 18:13:16 10° S 18:16:57 72° E 18:20:39 10° NNE
Cosmos 1954 Rocket 3.9 18:13:04 10° SSW 18:18:19 86° ESE 18:23:35 10° NNE
Cosmos 2278 Rocket 3.5 18:14:18 10° N 18:18:34 21° NE 18:19:41 20° NE
Cosmos 2333 Rocket 2.8 18:14:20 10° S 18:19:25 36° ESE 18:22:21 22° ENE
IGS 5A 4.1 18:20:49 29° E 18:21:34 32° ENE 18:25:14 10° N
MOS 1-B 4.3 18:17:03 10° SSE 18:22:49 73° ENE 18:28:37 10° NNW
Cosmos 2322 Rocket 2.1 18:17:38 10° SSW 18:23:14 78° ESE 18:28:47 10° NNE
Cosmos 1763 Rocket 4.1 18:18:29 10° NNW 18:23:36 59° WSW 18:28:35 10° S
Meteor 2-12 Rocket 4.4 18:19:06 10° N 18:25:14 87° E 18:31:18 10° S
Cosmos 1850 Rocket 4.4 18:25:22 10° S 18:30:10 40° ESE 18:32:18 27° NE
ATLAS 2AS CENTAUR R/B 3.4 18:24:52 10° NW 18:31:39 54° WSW 18:38:03 10° SSE
BlueWalker 3 2.5 18:28:14 10° WNW 18:32:01 47° N 18:33:03 37° NE
SL-4 R/B 1.8 18:28:44 10° WNW 18:32:15 63° N 18:33:04 47° ENE
Lacrosse 5 1.8 18:28:15 10° SW 18:33:22 81° SE 18:35:50 31° ENE
Cosmos 1606 Rocket 4.5 18:30:26 10° NNW 18:34:37 49° W 18:38:47 10° SSW
IRIDIUM 104 4.2 18:29:24 10° N 18:34:40 78° E 18:39:53 10° S
COSMOS 2428 4.3 18:30:39 10° SSE 18:32:20 16° SE 18:32:20 16° SE
ATLAS 5 CENTAUR R/B 3.8 18:33:43 10° NW 18:36:13 15° N 18:37:52 13° NNE
Cosmos 841 Rocket 3.4 18:31:01 10° NNW 18:36:19 75° ENE 18:41:34 10° SSE
S3M 4.2 18:31:20 10° SSE 18:37:23 48° E 18:43:28 10° NNE
Feng Yun 1-1 Rocket 4.2 18:32:06 10° SSE 18:37:33 61° ENE 18:42:56 10° N
Cosmos 540 Rocket 3.8 18:32:35 10° NNW 18:37:44 68° WSW 18:42:48 10° S
SL-16 R/B 2.6 18:32:18 10° SW 18:37:55 63° WNW 18:43:35 10° NNE
Cosmos 1741 Rocket 4.3 18:32:59 10° S 18:38:01 45° ESE 18:40:09 30° NE
Cosmos 1340 2.4 18:34:28 10° N 18:38:09 78° ENE 18:41:49 10° SSE
In-Cosmos 22 Rocket 4.3 18:32:32 10° SSW 18:38:22 84° WNW 18:44:15 10° N
Cosmos 1606 4.0 18:36:37 10° N 18:38:34 25° NNE 18:38:34 25° NNE
Cosmos 2333 4.3 18:35:10 10° S 18:40:32 49° ESE 18:42:55 30° NE
CSL-04 Debris 4.4 18:39:41 29° ESE 18:41:58 44° ENE 18:47:04 10° N
IRIDIUM 114 4.3 18:38:32 10° N 18:43:47 88° W 18:49:01 10° S
Gblst 52 Del rocket 4.0 18:39:00 10° WSW 18:44:37 88° NNW 18:46:47 38° ENE
MINOTAUR 4 R/B 3.8 18:46:22 60° NNE 18:46:56 85° ESE 18:50:20 10° SSW
Cosmos 1892 Rocket 3.7 18:43:46 10° SSW 18:48:10 76° W 18:52:35 10° N
CSL-04 Rocket 3.9 18:47:08 39° E 18:48:16 44° ENE 18:53:24 10° N
COSMO-SKYMED 1 4.1 18:45:42 10° N 18:49:43 37° WNW 18:53:42 10° SW
Cosmos 1980 Rocket 4.3 18:46:27 10° W 18:50:42 21° NW 18:54:58 10° N
Spot 1 4.0 18:51:48 54° SE 18:51:48 54° SE 18:55:24 10° S
IRIDIUM 103 4.5 18:47:43 10° N 18:52:57 75° W 18:58:08 10° S
Resurs 01 Rocket 4.0 19:00:01 11° NNE 19:00:01 11° NNE 19:00:15 10° N
Cosmos 2315 Rocket 4.3 18:50:57 10° SSE 18:56:48 41° E 19:02:43 10° NNE
Cosmos 1943 Rocket 3.9 18:54:45 10° N 18:57:55 18° NNE 18:57:55 18° NNE
Genesis I 3.1 18:56:05 10° SW 18:59:51 77° S 18:59:51 77° S
Cosmos 2322 4.1 18:55:47 10° S 19:00:25 41° SE 19:00:25 41° SE
ATLAS CENTAUR R/B 3.7 18:57:54 10° WNW 19:01:19 20° NNW 19:03:35 14° N
Cosmos 1869 4.4 19:00:48 10° NNW 19:04:31 44° W 19:08:15 10° SSW
Lacrosse 4 Rocket 4.0 19:13:25 10° N 19:13:42 11° N 19:13:42 11° N
Okean O Rocket 2.5 19:17:08 10° S 19:21:23 49° W 19:25:42 10° NNW
Cosmos 1745 Rocket 4.2 19:15:34 10° NNW 19:21:47 69° W 19:27:55 10° S
Cosmos 1461 3.8 19:18:21 10° WSW 19:22:32 47° NW 19:23:11 43° NNW
Okean-O 4.2 19:25:59 25° N 19:25:59 25° N 19:27:53 10° N
SJ-6B 4.3 19:26:54 30° NNW 19:26:54 30° NNW 19:29:01 10° NNW
Lacrosse 5 rocket 2.9 19:28:49 10° WNW 19:31:19 28° WSW 19:31:19 28° WSW
Cosmos 1709 Rocket 4.0 19:34:10 10° NNW 19:40:19 77° W 19:43:12 33° S
CZ-4 R/B 3.4 19:37:13 10° SSW 19:40:44 27° W 19:44:14 10° NW
Cosmos 2219 Rocket 2.5 19:49:18 10° SW 19:54:09 62° WSW 19:54:09 62° WSW
Cosmos 2360 Rocket 3.5 19:50:00 10° WSW 19:55:13 37° NW 19:57:41 26° N
Cosmos 2278 Rocket 3.1 19:57:49 10° NNW 20:01:33 43° NNW 20:01:33 43° NNW
Cosmos 2333 Rocket 3.1 19:58:09 10° SW 20:03:35 46° NW 20:04:26 43° NNW
Cosmos 2322 Rocket 4.1 20:03:22 10° W 20:07:55 25° NW 20:10:38 18° N
Lacrosse 5 3.5 20:11:52 10° W 20:15:02 32° WNW 20:15:02 32° WNW
ATLAS 5 CENTAUR R/B 4.3 20:18:26 10° NNW 20:19:14 14° NNW 20:19:14 14° NNW
Cosmos 1943 Rocket 4.3 20:37:47 10° NNW 20:39:27 20° NNW 20:39:27 20° NNW
